Regional Weather Roundup
Issued by NWS

Home | Current Version | Previous Version | Graphics & Text | Print | Product List | Glossary On
Versions: 1 2 3 4 5 6 7 8 9 10 11 12 13 14 15 16 17 18 19 20 21 22 23 24 25 26 27 28 29 30 31 32 33 34 35 36 37 38 39 40 41 42 43 44 45 46 47 48 49 50
000
ASUS43 KLSX 020107
RWRMO

WEATHER SUMMARY FOR MISSOURI
NATIONAL WEATHER SERVICE SPRINGFIELD MO
800 PM CDT MON SEP 01 2014

NOTE: "FAIR" INDICATES FEW OR NO CLOUDS BELOW 12,000 FEET WITH NO
       SIGNIFICANT WEATHER AND/OR OBSTRUCTIONS TO VISIBILITY.
       CURRENT SKY AND/OR WEATHER CONDITIONS ARE NOT AVAILABLE FOR
       CHILLICOTHE AND FARMINGTON.

MOZ001>031-035>038-043-044-053-054-020200-
...NORTHERN AND WESTERN MISSOURI...

CITY           SKY/WX    TMP DP  RH WIND       PRES   REMARKS
KANSAS CTY INT MOCLDY    75  70  84 CALM      29.85F
KANSAS C DTWN  CLOUDY    78  68  71 N3        29.84F
LEE`S SUMMIT   CLOUDY    76  67  73 CALM      29.86F
ST JOSEPH      PTCLDY    73  68  84 N8        29.85F
CHILLICOTHE      N/A     75  70  84 CALM      29.86S
KIRKSVILLE     PTCLDY    72  69  90 W3        29.86S

$$
MOZ066>068-077>081-088>096-101>105-020200-
...SOUTHWEST MISSOURI...

CITY           SKY/WX    TMP DP  RH WIND       PRES   REMARKS
SPRINGFIELD    MOCLDY    82  70  66 S13       29.85S
JOPLIN         CLOUDY    82  72  71 CALM      29.82R THUNDER

$$
MOZ032>034-039>042-045>050-055>058-069>072-020200-
...CENTRAL MISSOURI...

CITY           SKY/WX    TMP DP  RH WIND       PRES   REMARKS
COLUMBIA       LGT RAIN  71  69  93 NE7       29.87F
JEFFERSON CITY LGT RAIN  72  69  90 VRB3      29.86F
ROLLA          CLOUDY    77  67  71 S7        29.88F
SEDALIA        TSTM      72  70  93 SE5       29.88R FOG
WHITEMAN AFB   LGT RAIN  71  70  97 SE2       29.87F
OSAGE BEACH    MOCLDY    77  70  78 SE3       29.85F

$$
MOZ051-052-059>065-020200-
...EAST CENTRAL MISSOURI...

CITY           SKY/WX    TMP DP  RH WIND       PRES   REMARKS
ST LOUIS INTL  CLOUDY    77  70  78 N3        29.89F
SPIRIT OF STL  CLOUDY    75  72  90 SE3       29.87S
ST CHARLES     CLOUDY    75  72  90 S7        29.87F

$$
MOZ072>076-082>087-097>100-106>115-020200-
...SOUTH CENTRAL AND SOUTHEAST MISSOURI...

CITY           SKY/WX    TMP DP  RH WIND       PRES   REMARKS
CAPE GIRARDEAU PTCLDY    80  73  79 S8        29.91S
FARMINGTON     CLOUDY    79  70  73 SE3       29.92F
POPLAR BLUFF   CLEAR     81  70  69 S7        29.89F
WEST PLAINS    CLEAR     80  68  66 S6        29.92F

$$



USA.gov is the U.S. government's official web portal to all federal, state and local government web resources and services.